User: anonymous   Login
Location: Buchberg
(46.9333°N, 15.8500°E)
Time: 00:46:40
(UTC+00:00)
Language:

Cosmos 405 Rocket - Orbit

View from above orbital plane
View from above orbital plane
View from above satellite
View from above satellite

Ground track
Ground track

The orbit data is extracted from the following two-line orbital elements,

1  5118U 71028B   20273.58611811 +.00001106 +00000-0 +56878-4 0  9994
2  5118 081.2570 216.7153 0046034 213.1764 146.6577 15.14672357685585
Epoch (UTC): 29 September 2020 14:04:00
Eccentricity: 0.0046034
inclination: 81.2570°
perigee height: 490 km
apogee height: 554 km
right ascension of ascending node: 216.7153°
argument of perigee: 213.1764°
revolutions per day: 15.14672357
mean anomaly at epoch: 146.6577°
orbit number at epoch: 68558

The dashed part of the orbit path shows where the satellite is in the earth's shadow,  

DLR